Weather in Elan'

Russia / Kemerovo Oblast     53°42′28″N   87°15′55″E
temp.,
°C
wind,
m/s
gust,
m/s
humid.,
%
clouds,
%
prec.,
mm/h
press.,
hPa
HPBL,
m
17 may, tue
tue1701:00+16s2759100 0.0 1013187
04:00+14s2565100 0.0 1013127
07:00+15sse2568100 0.0 1013166
10:00+21s354813 0.0 1012654
13:00+26sw343156 0.0 10112790
16:00+25ssw243662 0.0 10101822
19:00+25sw243720 0.0 10091228
22:00+20sse244970 0.0 1010115
18 may, wed
wed1801:00+17s255412 0.0 1010121
04:00+15sse2459100 0.0 1010114
07:00+16sse256082 0.0 1011166
10:00+23ssw3641100 0.0 1011694
13:00+27wsw353271 0.0 10111689
16:00+28wnw352899 0.0 10102283
19:00+26nnw353698 0.0 1010722
22:00+20ene2251100 0.0 101141
19 may, thu
thu1901:00+18ene115698 0.0 101012
04:00+16e1162100 0.0 100918
07:00+17ese1263100 0.0 100875
10:00+24sse4742100 0.0 1007544
13:00+29sw51027100 0.0 10062209
16:00+27w4733100 0.0 10061582
19:00+24wsw495298 0.6 10071651
22:00+18sw38550 0.1 1011371
20 may, fri
fri2001:00+15sw3107033 0.1 1012302
04:00+14sw384877 0.0 1014465
07:00+14ssw385514 0.0 1017501
10:00+18sw48378 0.0 10172173
13:00+20wsw58285 0.0 10172664
16:00+22wsw57265 0.0 10162826
19:00+21wsw36336 0.0 10161553
22:00+16s2243100 0.0 101641
21 may, sat
sat2101:00+14s2350100 0.0 101692
04:00+12sse225373 0.0 101644
07:00+13ese125155 0.0 1015104
10:00+20e35385 0.0 1012518
13:00+25e45240 0.0 10091117
16:00+28e45200 0.0 10061324
19:00+27ene373111 0.0 1003533
22:00+19ese234513 0.0 100248